• In Hungary
  • List of Countries
  • For 7 days
  • Water Temperature
  • Satellite Maps
  • Weather Map
  • News
  • Weather Widgets
  • user-avatar
    Login

    Hourly Weather Kyzylbulak

    Today, 17 October, Wednesday

    Time Temperature Precipitation Wind Pressure Humidity
    00:00 +6°C° 0 mm 5 mps 756 mmHg 76%
    01:00 +6°C° 0 mm 5 mps 756 mmHg 79%
    02:00 +6°C° 0 mm 5 mps 755 mmHg 83%
    03:00 +6°C° 0 mm 5 mps 755 mmHg 87%
    04:00 +6°C° 0 mm 5 mps 755 mmHg 92%
    05:00 +6°C° 0 mm 5 mps 754 mmHg 93%
    06:00 +6°C° 0 mm 5 mps 754 mmHg 94%
    07:00 +7°C° 0 mm 5 mps 753 mmHg 95%
    08:00 +8°C° 0 mm 5 mps 753 mmHg 89%
    09:00 +9°C° 0 mm 5 mps 753 mmHg 82%
    10:00 +10°C° 0 mm 6 mps 753 mmHg 76%
    11:00 +13°C° 0 mm 6 mps 752 mmHg 69%
    12:00 +14°C° 0 mm 7 mps 752 mmHg 61%
    13:00 +16°C° 0 mm 7 mps 751 mmHg 54%
    14:00 +16°C° 0 mm 7 mps 751 mmHg 53%
    15:00 +16°C° 0 mm 7 mps 750 mmHg 52%
    16:00 +16°C° 0 mm 7 mps 750 mmHg 50%
    17:00 +15°C° 0 mm 6 mps 750 mmHg 54%
    18:00 +13°C° 0 mm 6 mps 750 mmHg 58%
    19:00 +12°C° 0 mm 5 mps 750 mmHg 62%
    20:00 +10°C° 0 mm 5 mps 750 mmHg 66%
    21:00 +10°C° 0 mm 5 mps 750 mmHg 70%
    22:00 +9°C° 0 mm 5 mps 751 mmHg 75%
    23:00 +9°C° 0 mm 5 mps 751 mmHg 73%

    Tomorrow, 18 October, Thursday

    Time Temperature Precipitation Wind Pressure Humidity
    00:00 +8°C° 0 mm 5 mps 752 mmHg 71%
    01:00 +8°C° 0 mm 5 mps 752 mmHg 69%
    02:00 +7°C° 0 mm 5 mps 753 mmHg 72%
    03:00 +6°C° 0 mm 4 mps 753 mmHg 74%
    04:00 +5°C° 0 mm 4 mps 754 mmHg 77%
    05:00 +4°C° 0 mm 4 mps 754 mmHg 77%
    06:00 +3°C° 0 mm 4 mps 755 mmHg 78%
    07:00 +3°C° 0 mm 3 mps 755 mmHg 79%
    08:00 +4°C° 0 mm 4 mps 755 mmHg 73%
    09:00 +5°C° 0 mm 4 mps 756 mmHg 66%
    10:00 +6°C° 0 mm 4 mps 756 mmHg 60%
    11:00 +7°C° 0 mm 4 mps 756 mmHg 55%
    12:00 +8°C° 0 mm 4 mps 756 mmHg 49%
    13:00 +10°C° 0 mm 4 mps 756 mmHg 44%
    14:00 +9°C° 0 mm 5 mps 756 mmHg 43%
    15:00 +10°C° 0 mm 5 mps 756 mmHg 43%
    16:00 +10°C° 0 mm 5 mps 756 mmHg 42%
    17:00 +8°C° 0 mm 4 mps 756 mmHg 46%
    18:00 +7°C° 0 mm 4 mps 756 mmHg 50%
    19:00 +7°C° 0 mm 3 mps 756 mmHg 54%
    20:00 +7°C° 0 mm 3 mps 756 mmHg 57%
    21:00 +5°C° 0 mm 3 mps 756 mmHg 60%
    22:00 +5°C° 0 mm 3 mps 756 mmHg 62%
    23:00 +5°C° 0 mm 3 mps 756 mmHg 64%

    Day after tomorrow, 19 October, Friday

    Time Temperature Precipitation Wind Pressure Humidity
    00:00 +5°C° 0 mm 2 mps 756 mmHg 66%
    01:00 +5°C° 0 mm 2 mps 756 mmHg 68%
    02:00 +5°C° 0 mm 2 mps 756 mmHg 68%
    03:00 +4°C° 0 mm 2 mps 757 mmHg 69%
    04:00 +3°C° 0 mm 3 mps 757 mmHg 70%
    05:00 +3°C° 0 mm 3 mps 757 mmHg 69%
    06:00 +3°C° 0 mm 3 mps 756 mmHg 69%
    07:00 +3°C° 0 mm 3 mps 756 mmHg 69%
    08:00 +5°C° 0 mm 4 mps 756 mmHg 62%
    09:00 +6°C° 0 mm 5 mps 756 mmHg 55%
    10:00 +8°C° 0 mm 5 mps 756 mmHg 48%
    11:00 +9°C° 0 mm 6 mps 756 mmHg 45%
    12:00 +11°C° 0 mm 6 mps 756 mmHg 41%
    13:00 +13°C° 0 mm 6 mps 756 mmHg 38%
    14:00 +13°C° 0 mm 6 mps 756 mmHg 38%
    15:00 +13°C° 0 mm 6 mps 755 mmHg 38%
    16:00 +13°C° 0 mm 6 mps 755 mmHg 38%
    17:00 +12°C° 0 mm 5 mps 755 mmHg 41%
    18:00 +10°C° 0 mm 5 mps 755 mmHg 43%
    19:00 +10°C° 0 mm 4 mps 755 mmHg 46%
    20:00 +8°C° 0 mm 4 mps 755 mmHg 46%
    21:00 +8°C° 0 mm 4 mps 755 mmHg 46%
    22:00 +7°C° 0 mm 4 mps 755 mmHg 46%
    23:00 +7°C° 0 mm 4 mps 755 mmHg 46%

    20 October, Saturday

    Time Temperature Precipitation Wind Pressure Humidity
    00:00 +7°C° 0 mm 4 mps 755 mmHg 46%
    01:00 +7°C° 0 mm 4 mps 755 mmHg 46%
    02:00 +6°C° 0 mm 4 mps 755 mmHg 47%
    03:00 +6°C° 0 mm 4 mps 755 mmHg 47%
    04:00 +6°C° 0 mm 4 mps 755 mmHg 47%
    05:00 +6°C° 0 mm 4 mps 755 mmHg 47%
    06:00 +5°C° 0 mm 4 mps 755 mmHg 47%
    07:00 +5°C° 0 mm 4 mps 755 mmHg 47%
    08:00 +7°C° 0 mm 5 mps 755 mmHg 43%
    09:00 +8°C° 0 mm 5 mps 755 mmHg 38%
    10:00 +10°C° 0 mm 6 mps 755 mmHg 33%
    11:00 +11°C° 0 mm 6 mps 755 mmHg 31%
    12:00 +12°C° 0 mm 7 mps 754 mmHg 29%
    13:00 +15°C° 0 mm 7 mps 754 mmHg 27%
    14:00 +15°C° 0 mm 7 mps 754 mmHg 26%
    15:00 +14°C° 0 mm 6 mps 754 mmHg 26%
    16:00 +14°C° 0 mm 6 mps 753 mmHg 25%
    17:00 +13°C° 0 mm 5 mps 753 mmHg 27%
    18:00 +12°C° 0 mm 5 mps 753 mmHg 29%
    19:00 +11°C° 0 mm 4 mps 753 mmHg 31%
    20:00 +10°C° 0 mm 4 mps 753 mmHg 34%
    21:00 +10°C° 0 mm 4 mps 753 mmHg 37%
    22:00 +8°C° 0 mm 4 mps 753 mmHg 41%
    23:00 +8°C° 0 mm 4 mps 753 mmHg 45%

    21 October, Sunday

    Time Temperature Precipitation Wind Pressure Humidity
    00:00 +7°C° 0 mm 4 mps 753 mmHg 49%
    01:00 +7°C° 0 mm 4 mps 752 mmHg 53%
    02:00 +8°C° 0 mm 3 mps 752 mmHg 57%
    03:00 +8°C° 0 mm 3 mps 752 mmHg 61%
    04:00 +7°C° 0 mm 3 mps 752 mmHg 65%
    05:00 +7°C° 0 mm 3 mps 753 mmHg 69%
    06:00 +7°C° 0 mm 2 mps 753 mmHg 73%
    07:00 +6°C° 0 mm 2 mps 753 mmHg 77%
    08:00 +8°C° 0 mm 2 mps 753 mmHg 72%
    09:00 +9°C° 0 mm 2 mps 753 mmHg 68%
    10:00 +12°C° 0 mm 2 mps 753 mmHg 63%
    11:00 +13°C° 0 mm 2 mps 753 mmHg 61%
    12:00 +13°C° 0 mm 2 mps 753 mmHg 59%
    13:00 +14°C° 0 mm 2 mps 753 mmHg 57%
    14:00 +14°C° 0 mm 1 mps 753 mmHg 58%
    15:00 +14°C° 0 mm 1 mps 753 mmHg 58%
    16:00 +14°C° 0 mm 1 mps 753 mmHg 59%
    17:00 +13°C° 0 mm 1 mps 753 mmHg 63%
    18:00 +12°C° 0 mm 1 mps 753 mmHg 68%
    19:00 +10°C° 0 mm 0 mps 753 mmHg 72%
    20:00 +10°C° 0 mm 1 mps 753 mmHg 73%
    21:00 +10°C° 0 mm 1 mps 753 mmHg 74%
    22:00 +10°C° 0 mm 1 mps 753 mmHg 74%
    23:00 +10°C° 0 mm 1 mps 753 mmHg 74%

    22 October, Monday

    Time Temperature Precipitation Wind Pressure Humidity
    00:00 +9°C° 0 mm 1 mps 753 mmHg 73%
    01:00 +9°C° 0 mm 1 mps 753 mmHg 73%
    02:00 +8°C° 0 mm 2 mps 753 mmHg 74%
    03:00 +8°C° 0 mm 2 mps 753 mmHg 74%
    04:00 +7°C° 0 mm 2 mps 753 mmHg 75%
    05:00 +7°C° 0 mm 2 mps 753 mmHg 75%
    06:00 +7°C° 0 mm 2 mps 753 mmHg 75%
    07:00 +7°C° 0 mm 2 mps 753 mmHg 76%
    08:00 +8°C° 0 mm 2 mps 754 mmHg 70%
    09:00 +9°C° 0 mm 2 mps 754 mmHg 65%
    10:00 +10°C° 0 mm 2 mps 754 mmHg 60%
    11:00 +12°C° 0 mm 2 mps 754 mmHg 57%
    12:00 +13°C° 0 mm 2 mps 754 mmHg 54%
    13:00 +14°C° 0 mm 2 mps 753 mmHg 51%
    14:00 +14°C° 0 mm 1 mps 753 mmHg 50%
    15:00 +14°C° 0 mm 1 mps 753 mmHg 50%
    16:00 +14°C° 0 mm 1 mps 753 mmHg 49%
    17:00 +13°C° 0 mm 1 mps 753 mmHg 53%
    18:00 +11°C° 0 mm 1 mps 753 mmHg 56%
    19:00 +10°C° 0 mm 1 mps 753 mmHg 60%
    20:00 +10°C° 0 mm 1 mps 753 mmHg 61%
    21:00 +9°C° 0 mm 1 mps 753 mmHg 62%
    22:00 +9°C° 0 mm 1 mps 753 mmHg 64%
    23:00 +8°C° 0 mm 1 mps 753 mmHg 66%
    Show more